KB1LTW-13 Weather Reports


time (UTC)temp
C
wind
direction
speed
KPH
gust
KPH
rain 1hr
cm
rain 24hr
cm
rain mn
cm
humidity
%
barometer
mb
20260506215125 14 46 1.6 9.7 0.00 0.00 0.00 97 1008.7
20260506214115 14 38 1.6 6.4 0.00 0.00 0.00 97 1008.8
20260506213118 14 27 3.2 3.2 0.00 0.00 0.00 97 1008.7
20260506212124 14 39 1.6 4.8 0.00 0.00 0.00 97 1008.7
20260506211117 14 25 1.6 3.2 0.00 0.00 0.00 97 1008.7
20260506210137 14 16 3.2 4.8 0.00 0.00 0.00 97 1008.7
20260506205147 14 51 0.0 1.6 0.00 0.00 0.00 97 1008.8
20260506204135 14 100 1.6 6.4 0.00 0.00 0.00 97 1009.0
20260506203124 14 92 1.6 3.2 0.00 0.00 0.00 97 1009.0
20260506202120 14 75 3.2 4.8 0.00 0.00 0.00 96 1009.0
20260506201117 14 95 3.2 4.8 0.00 0.00 0.00 96 1009.1
20260506200121 13 101 1.6 3.2 0.00 0.00 0.00 96 1009.2
20260506195148 13 94 3.2 3.2 0.00 0.00 0.00 96 1009.3
20260506194117 13 93 0.0 3.2 0.00 0.00 0.00 96 1009.3
20260506193119 13 84 3.2 4.8 0.00 0.00 0.00 96 1009.5
20260506192120 13 84 3.2 6.4 0.00 0.00 0.00 96 1009.6
20260506191124 13 99 1.6 3.2 0.00 0.00 0.00 95 1009.7
20260506190121 13 79 3.2 4.8 0.00 0.00 0.00 95 1009.9
20260506185128 13 58 4.8 6.4 0.00 0.00 0.00 95 1010.0
20260506184118 13 72 6.4 9.7 0.00 0.00 0.00 94 1009.8
20260506183121 14 95 4.8 9.7 0.00 0.00 0.00 94 1010.0
20260506182142 14 91 3.2 6.4 0.00 0.00 0.00 94 1009.9
20260506181116 14 27 6.4 6.4 0.00 0.00 0.00 93 1009.9
20260506180121 15 84 3.2 6.4 0.00 0.00 0.00 93 1010.2
20260506175149 15 98 1.6 3.2 0.00 0.00 0.00 92 1009.9
20260506174119 15 84 3.2 4.8 0.00 0.00 0.00 91 1010.2
20260506173143 15 97 1.6 3.2 0.00 0.00 0.00 91 1010.4
20260506172123 15 92 1.6 3.2 0.00 0.00 0.00 89 1010.6
20260506171123 16 104 1.6 1.6 0.00 0.00 0.00 87 1011.1
20260506170144 16 107 0.0 3.2 0.00 0.00 0.00 84 1011.2
20260506165151 17 88 1.6 3.2 0.00 0.00 0.00 80 1011.1
20260506164120 17 92 3.2 9.7 0.00 0.00 0.00 76 1011.3
20260506163116 17 89 1.6 4.8 0.00 0.00 0.00 76 1011.4
20260506162115 17 75 4.8 6.4 0.00 0.00 0.00 74 1011.2
20260506161124 18 86 1.6 6.4 0.00 0.00 0.00 71 1011.0
20260506160125 18 93 1.6 4.8 0.00 0.00 0.00 69 1011.0
20260506155151 18 0.0 1.6 0.00 0.00 0.00 69 1011.4
20260506154121 18 21 6.4 12.9 0.00 0.00 0.00 70 1011.7
20260506153140 18 49 3.2 6.4 0.00 0.00 0.00 70 1011.7
20260506152124 18 13 8.0 11.3 0.00 0.00 0.00 69 1011.7
20260506151125 18 92 1.6 6.4 0.00 0.00 0.00 69 1011.7
20260506150126 18 104 1.6 4.8 0.00 0.00 0.00 70 1011.6
20260506145116 18 86 0.0 3.2 0.00 0.00 0.00 70 1011.7
20260506144123 18 98 1.6 11.3 0.00 0.00 0.00 71 1011.8
20260506143119 17 91 1.6 6.4 0.00 0.00 0.00 74 1012.2
20260506142125 17 75 3.2 6.4 0.00 0.00 0.00 75 1012.0
20260506141126 17 83 3.2 4.8 0.00 0.00 0.00 74 1012.0
20260506140115 17 101 1.6 4.8 0.00 0.00 0.00 78 1012.0
20260506135117 16 104 0.0 3.2 0.00 0.00 0.00 80 1011.8
20260506134123 16 86 1.6 4.8 0.00 0.00 0.00 81 1011.9
20260506133145 16 32 4.8 9.7 0.00 0.00 0.00 81 1011.7
20260506132146 15 90 1.6 4.8 0.00 0.00 0.00 82 1011.8
20260506131116 15 19 4.8 6.4 0.00 0.00 0.00 83 1012.0
20260506130117 15 95 3.2 4.8 0.00 0.00 0.00 84 1012.1
20260506125123 15 67 4.8 6.4 0.00 0.00 0.00 84 1012.0
20260506124125 15 96 1.6 3.2 0.00 0.00 0.00 85 1012.2
20260506123126 15 93 1.6 4.8 0.00 0.00 0.00 85 1012.4
20260506122116 14 57 4.8 9.7 0.00 0.00 0.00 85 1012.6
20260506121137 14 83 3.2 4.8 0.00 0.00 0.00 86 1012.3
20260506120123 14 95 1.6 3.2 0.00 0.00 0.00 86 1012.3
20260506115139 14 95 1.6 3.2 0.00 0.00 0.00 87 1012.4
20260506114126 14 96 1.6 4.8 0.00 0.00 0.00 87 1012.0
20260506113116 13 66 3.2 6.4 0.00 0.00 0.00 87 1012.4
20260506112117 13 91 1.6 6.4 0.00 0.00 0.00 88 1012.3
20260506111118 13 89 1.6 4.8 0.00 0.00 0.00 88 1012.3
20260506110118 13 92 0.0 3.2 0.00 0.00 0.00 90 1012.3
20260506105115 13 99 1.6 3.2 0.00 0.00 0.00 91 1012.8
20260506104121 12 96 3.2 3.2 0.00 0.00 0.00 91 1012.5
20260506103117 12 100 0.0 1.6 0.00 0.00 0.00 91 1012.6
20260506102118 12 103 0.0 1.6 0.00 0.00 0.00 91 1012.4
20260506101118 12 92 1.6 3.2 0.00 0.00 0.00 91 1012.3
20260506100125 12 96 1.6 4.8 0.00 0.00 0.00 91 1012.3
20260506095116 12 0.0 1.6 0.00 0.00 0.00 90 1012.2
20260506094122 12 104 0.0 1.6 0.00 0.00 0.00 90 1012.2
20260506093118 12 103 1.6 1.6 0.00 0.00 0.00 89 1012.1
20260506092137 12 101 0.0 1.6 0.00 0.00 0.00 89 1012.2
20260506091120 12 99 1.6 1.6 0.00 0.00 0.00 88 1012.3
20260506090126 12 0.0 0.0 0.00 0.00 0.00 88 1012.3
20260506085121 12 0.0 0.0 0.00 0.00 0.00 87 1012.4
20260506084121 13 104 0.0 1.6 0.00 0.00 0.00 87 1012.2
20260506083119 13 0.0 1.6 0.00 0.00 0.00 86 1012.3
20260506082120 13 0.0 0.0 0.00 0.00 0.00 86 1012.2
20260506081121 13 0.0 0.0 0.00 0.00 0.00 86 1012.1
20260506080121 13 0.0 0.0 0.00 0.00 0.00 84 1012.2
20260506073120 13 98 0.0 3.2 0.00 0.00 0.00 81 1012.2
20260506072121 14 113 0.0 1.6 0.00 0.00 0.00 80 1012.4
20260506071121 14 0.0 1.6 0.00 0.00 0.00 78 1012.3
20260506070121 15 107 0.0 1.6 0.00 0.00 0.00 77 1012.3
20260506062116 15 67 4.8 6.4 0.00 0.00 0.00 72 1012.1
20260506061126 15 103 0.0 1.6 0.00 0.00 0.00 72 1012.1
20260506060121 16 101 1.6 1.6 0.00 0.00 0.00 71 1012.3
20260506051115 16 70 3.2 6.4 0.00 0.00 0.00 68 1012.5
20260506050122 16 81 3.2 6.4 0.00 0.00 0.00 68 1012.6
20260506044116 16 101 1.6 3.2 0.00 0.00 0.00 69 1012.6
20260506043123 16 100 1.6 3.2 0.00 0.00 0.00 69 1012.7
20260506042124 16 98 1.6 3.2 0.00 0.00 0.00 68 1012.6
20260506041124 16 93 1.6 3.2 0.00 0.00 0.00 68 1012.6
20260506040127 16 87 3.2 4.8 0.00 0.00 0.00 68 1012.7
20260506035116 16 101 1.6 1.6 0.00 0.00 0.00 69 1012.8
20260506034117 16 0.0 1.6 0.00 0.00 0.00 69 1012.7
20260506033125 16 0.0 0.0 0.00 0.00 0.00 68 1012.8
20260506032126 16 112 1.6 3.2 0.00 0.00 0.00 67 1012.6
20260506031136 16 101 0.0 4.8 0.00 0.00 0.00 67 1012.8
20260506030116 16 88 1.6 4.8 0.00 0.00 0.00 67 1012.7
20260506025137 16 96 1.6 4.8 0.00 0.00 0.00 67 1012.6
20260506024119 16 102 0.0 3.2 0.00 0.00 0.00 67 1012.6
20260506023126 16 97 1.6 3.2 0.00 0.00 0.00 67 1012.6
20260506022120 16 0.0 1.6 0.00 0.00 0.00 66 1012.5
20260506021115 16 100 1.6 1.6 0.00 0.00 0.00 66 1012.4
20260506020117 16 0.0 0.0 0.00 0.00 0.00 66 1012.6
20260506015138 16 105 0.0 1.6 0.00 0.00 0.00 67 1012.6
20260506014118 16 0.0 0.0 0.00 0.00 0.00 68 1012.5
20260506013117 16 0.0 0.0 0.00 0.00 0.00 67 1012.5
20260506012123 17 0.0 0.0 0.00 0.00 0.00 65 1012.3
20260506011117 17 0.0 1.6 0.00 0.00 0.00 63 1012.1
20260506010118 17 93 0.0 3.2 0.00 0.00 0.00 62 1012.1
20260506005119 18 98 0.0 3.2 0.00 0.00 0.00 61 1012.0
20260506004140 18 95 3.2 3.2 0.00 0.00 0.00 60 1011.9
20260506003125 18 95 1.6 4.8 0.00 0.00 0.00 61 1011.7
20260506002116 18 97 1.6 3.2 0.00 0.00 0.00 59 1011.5
20260506001117 18 102 1.6 4.8 0.00 0.00 0.00 58 1011.4
20260506000119 19 80 3.2 4.8 0.00 0.00 0.00 58 1011.3
20260505235140 19 97 1.6 3.2 0.00 0.00 0.00 57 1011.2
20260505234116 20 57 4.8 11.3 0.00 0.00 0.00 56 1011.0
20260505233127 20 81 3.2 9.7 0.00 0.00 0.00 55 1011.0
20260505232117 20 73 3.2 12.9 0.00 0.00 0.00 55 1010.9
20260505231138 20 27 6.4 12.9 0.00 0.00 0.00 55 1010.6
20260505230120 20 100 1.6 4.8 0.00 0.00 0.00 55 1010.5
20260505225157 21 80 4.8 11.3 0.00 0.00 0.00 54 1010.3
20260505224122 21 2 8.0 12.9 0.00 0.00 0.00 53 1010.2
20260505223128 21 93 1.6 4.8 0.00 0.00 0.00 53 1010.2
20260505222138 21 43 4.8 9.7 0.00 0.00 0.00 52 1010.0
20260505221140 22 78 3.2 4.8 0.00 0.00 0.00 51 1010.0
20260505220121 22 48 8.0 12.9 0.00 0.00 0.00 50 1009.9